Time,TemperatureF,DewpointF,PressureIn,WindDirection,WindDirectionDegrees,WindSpeedMPH,WindSpeedGustMPH,Humidity,HourlyPrecipIn,Conditions,Clouds,dailyrainin,SoftwareType,DateUTC
2013-04-16 00:00:00,72.3,66.9,30.04,NW,309,0.0,1.0,83,0.00,,,0.00,meteohub,2013-04-16 04:00:00,
2013-04-16 00:01:00,72.3,66.9,30.04,NW,309,0.0,1.0,83,0.00,,,0.00,meteohub,2013-04-16 04:01:00,
2013-04-16 00:04:00,72.3,66.9,30.04,NW,309,0.0,1.0,83,0.00,,,0.00,meteohub,2013-04-16 04:04:00,
2013-04-16 00:06:00,72.1,67.1,30.04,NW,309,0.0,1.0,84,0.00,,,0.00,meteohub,2013-04-16 04:06:00,
2013-04-16 00:11:00,72.1,67.1,30.03,NW,309,0.0,1.0,84,0.00,,,0.00,meteohub,2013-04-16 04:11:00,
2013-04-16 00:17:00,72.1,67.1,30.03,NW,309,0.0,1.0,84,0.00,,,0.00,meteohub,2013-04-16 04:17:00,
2013-04-16 00:22:00,72.1,67.1,30.03,NW,309,0.0,0.0,84,0.00,,,0.00,meteohub,2013-04-16 04:22:00,
2013-04-16 00:27:00,72.0,67.3,30.03,NW,309,0.0,1.0,85,0.00,,,0.00,meteohub,2013-04-16 04:27:00,
2013-04-16 00:32:00,72.0,66.9,30.03,NW,309,0.0,1.0,84,0.00,,,0.00,meteohub,2013-04-16 04:32:00,
2013-04-16 00:37:00,72.0,66.9,30.03,NW,309,0.0,1.0,84,0.00,,,0.00,meteohub,2013-04-16 04:37:00,
2013-04-16 00:42:00,72.0,67.3,30.03,NW,309,0.0,1.0,85,0.00,,,0.00,meteohub,2013-04-16 04:42:00,
2013-04-16 00:47:00,71.8,67.1,30.03,NW,309,0.0,0.0,85,0.00,,,0.00,meteohub,2013-04-16 04:47:00,
2013-04-16 00:52:00,71.8,67.3,30.03,NW,309,0.0,0.0,86,0.00,,,0.00,meteohub,2013-04-16 04:52:00,
2013-04-16 00:57:00,71.4,67.1,30.03,NW,309,0.0,0.0,86,0.00,,,0.00,meteohub,2013-04-16 04:57:00,
2013-04-16 01:02:00,71.4,66.7,30.02,NW,309,0.0,0.0,85,0.00,,,0.00,meteohub,2013-04-16 05:02:00,
2013-04-16 01:07:00,71.2,66.9,30.02,NW,309,0.0,0.0,86,0.00,,,0.00,meteohub,2013-04-16 05:07:00,
2013-04-16 01:12:00,71.2,67.1,30.02,NW,309,0.0,0.0,87,0.00,,,0.00,meteohub,2013-04-16 05:12:00,
2013-04-16 01:17:00,71.2,66.9,30.02,NW,309,0.0,1.0,86,0.00,,,0.00,meteohub,2013-04-16 05:17:00,
2013-04-16 01:22:00,71.1,66.9,30.02,NW,309,0.0,1.0,87,0.00,,,0.00,meteohub,2013-04-16 05:22:00,
2013-04-16 01:27:00,71.1,66.9,30.02,NW,309,0.0,0.0,87,0.00,,,0.00,meteohub,2013-04-16 05:27:00,
2013-04-16 01:32:00,70.9,66.7,30.02,NW,309,0.0,0.0,87,0.00,,,0.00,meteohub,2013-04-16 05:32:00,
2013-04-16 01:38:00,70.9,67.1,30.01,NW,309,0.0,0.0,88,0.00,,,0.00,meteohub,2013-04-16 05:38:00,
2013-04-16 01:43:00,70.7,66.9,30.01,NW,309,0.0,0.0,88,0.00,,,0.00,meteohub,2013-04-16 05:43:00,
2013-04-16 01:48:00,70.7,66.9,30.01,NW,309,0.0,0.0,88,0.00,,,0.00,meteohub,2013-04-16 05:48:00,
2013-04-16 01:53:00,70.5,66.7,30.01,NW,309,0.0,0.0,88,0.00,,,0.00,meteohub,2013-04-16 05:53:00,
2013-04-16 01:58:00,70.3,66.6,30.01,NW,309,0.0,0.0,88,0.00,,,0.00,meteohub,2013-04-16 05:58:00,
2013-04-16 02:03:00,70.2,66.4,30.01,NW,309,0.0,0.0,88,0.00,,,0.00,meteohub,2013-04-16 06:03:00,
2013-04-16 02:08:00,70.2,66.7,30.01,NW,309,0.0,0.0,89,0.00,,,0.00,meteohub,2013-04-16 06:08:00,
2013-04-16 02:14:00,70.3,66.9,30.01,NW,309,1.0,0.0,89,0.00,,,0.00,meteohub,2013-04-16 06:14:00,
2013-04-16 02:19:00,70.3,67.3,30.01,NW,309,0.0,0.0,90,0.00,,,0.00,meteohub,2013-04-16 06:19:00,
2013-04-16 02:24:00,70.3,67.3,30.01,NW,309,0.0,1.0,90,0.00,,,0.00,meteohub,2013-04-16 06:24:00,
2013-04-16 02:29:00,70.3,66.9,30.01,NW,309,0.0,1.0,89,0.00,,,0.00,meteohub,2013-04-16 06:29:00,
2013-04-16 02:34:00,70.3,66.9,30.00,NW,309,0.0,1.0,89,0.00,,,0.00,meteohub,2013-04-16 06:34:00,
2013-04-16 02:39:00,70.2,66.7,30.00,NW,309,0.0,0.0,89,0.00,,,0.00,meteohub,2013-04-16 06:39:00,
2013-04-16 02:45:00,70.2,67.1,30.00,NW,309,0.0,0.0,90,0.00,,,0.00,meteohub,2013-04-16 06:45:00,
2013-04-16 02:50:00,70.2,67.5,30.00,NW,309,0.0,1.0,91,0.00,,,0.00,meteohub,2013-04-16 06:50:00,
2013-04-16 02:55:00,70.0,67.3,30.00,NW,309,0.0,1.0,91,0.00,,,0.00,meteohub,2013-04-16 06:55:00,
2013-04-16 03:00:00,69.8,67.1,30.00,NW,309,0.0,1.0,91,0.00,,,0.00,meteohub,2013-04-16 07:00:00,
2013-04-16 03:05:00,69.6,66.9,30.00,NW,309,0.0,1.0,91,0.00,,,0.00,meteohub,2013-04-16 07:05:00,
2013-04-16 03:10:00,69.6,66.9,30.00,NW,309,0.0,0.0,91,0.00,,,0.00,meteohub,2013-04-16 07:10:00,
2013-04-16 03:16:00,69.4,66.7,30.00,NW,309,0.0,0.0,91,0.00,,,0.00,meteohub,2013-04-16 07:16:00,
2013-04-16 03:21:00,69.3,66.9,30.00,NW,309,0.0,0.0,92,0.00,,,0.00,meteohub,2013-04-16 07:21:00,
2013-04-16 03:26:00,69.4,67.1,29.99,NW,309,0.0,0.0,92,0.00,,,0.00,meteohub,2013-04-16 07:26:00,
2013-04-16 03:31:00,69.4,67.3,29.99,NW,309,0.0,0.0,93,0.00,,,0.00,meteohub,2013-04-16 07:31:00,
2013-04-16 03:36:00,69.3,66.9,29.99,NW,309,0.0,0.0,92,0.00,,,0.00,meteohub,2013-04-16 07:36:00,
2013-04-16 03:41:00,69.1,66.7,29.99,NW,309,0.0,0.0,92,0.00,,,0.00,meteohub,2013-04-16 07:41:00,
2013-04-16 03:47:00,68.7,66.4,29.99,NW,309,0.0,0.0,92,0.00,,,0.00,meteohub,2013-04-16 07:47:00,
2013-04-16 03:52:00,68.5,66.2,29.99,NW,309,0.0,0.0,92,0.00,,,0.00,meteohub,2013-04-16 07:52:00,
2013-04-16 03:57:00,68.5,66.4,29.99,NW,309,0.0,0.0,93,0.00,,,0.00,meteohub,2013-04-16 07:57:00,
2013-04-16 04:02:00,68.5,66.4,29.99,NW,309,0.0,0.0,93,0.00,,,0.00,meteohub,2013-04-16 08:02:00,
2013-04-16 04:07:00,68.5,66.4,29.99,NW,309,0.0,0.0,93,0.00,,,0.00,meteohub,2013-04-16 08:07:00,
2013-04-16 04:12:00,68.5,66.4,29.99,NW,309,0.0,0.0,93,0.00,,,0.00,meteohub,2013-04-16 08:12:00,
2013-04-16 04:17:00,68.5,66.2,29.99,NW,309,0.0,0.0,92,0.00,,,0.00,meteohub,2013-04-16 08:17:00,
2013-04-16 04:22:00,68.5,66.2,29.99,NW,309,0.0,0.0,92,0.00,,,0.00,meteohub,2013-04-16 08:22:00,
2013-04-16 04:27:00,68.4,66.0,29.99,NW,309,0.0,0.0,92,0.00,,,0.00,meteohub,2013-04-16 08:27:00,
2013-04-16 04:32:00,68.4,66.0,29.99,NW,309,0.0,0.0,92,0.00,,,0.00,meteohub,2013-04-16 08:32:00,
2013-04-16 04:37:00,68.4,66.2,29.99,NW,309,0.0,0.0,93,0.00,,,0.00,meteohub,2013-04-16 08:37:00,
2013-04-16 04:42:00,68.5,66.4,29.99,NW,309,0.0,1.0,93,0.00,,,0.00,meteohub,2013-04-16 08:42:00,
2013-04-16 04:47:00,68.5,66.4,29.99,NW,309,0.0,1.0,93,0.00,,,0.00,meteohub,2013-04-16 08:47:00,
2013-04-16 04:52:00,68.7,66.6,29.99,NW,309,0.0,1.0,93,0.00,,,0.00,meteohub,2013-04-16 08:52:00,
2013-04-16 04:57:00,68.7,66.6,29.99,NW,309,0.0,1.0,93,0.00,,,0.00,meteohub,2013-04-16 08:57:00,
2013-04-16 05:02:00,68.9,66.7,30.00,NW,309,0.0,1.0,93,0.00,,,0.00,meteohub,2013-04-16 09:02:00,
2013-04-16 05:07:00,68.7,66.6,30.00,NW,309,0.0,1.0,93,0.00,,,0.00,meteohub,2013-04-16 09:07:00,
2013-04-16 05:12:00,68.7,66.6,30.00,NW,309,0.0,1.0,93,0.00,,,0.00,meteohub,2013-04-16 09:12:00,
2013-04-16 05:17:00,68.7,66.6,30.00,NW,309,0.0,1.0,93,0.00,,,0.00,meteohub,2013-04-16 09:17:00,
2013-04-16 05:22:00,68.7,66.9,30.00,NW,309,0.0,1.0,94,0.00,,,0.00,meteohub,2013-04-16 09:22:00,
2013-04-16 05:27:00,68.7,66.9,30.00,NW,309,0.0,1.0,94,0.00,,,0.00,meteohub,2013-04-16 09:27:00,
2013-04-16 05:32:00,68.7,66.9,30.01,NW,309,0.0,0.0,94,0.00,,,0.00,meteohub,2013-04-16 09:32:00,
2013-04-16 05:37:00,68.7,66.9,30.01,NW,309,0.0,0.0,94,0.00,,,0.00,meteohub,2013-04-16 09:37:00,
2013-04-16 05:42:00,68.7,66.9,30.01,NW,309,0.0,0.0,94,0.00,,,0.00,meteohub,2013-04-16 09:42:00,
2013-04-16 05:47:00,69.1,67.3,30.01,NW,309,1.0,1.0,94,0.00,,,0.00,meteohub,2013-04-16 09:47:00,
2013-04-16 05:52:00,69.1,67.3,30.01,NW,309,1.0,1.0,94,0.00,,,0.00,meteohub,2013-04-16 09:52:00,
2013-04-16 05:57:00,69.3,67.5,30.01,NW,309,0.0,1.0,94,0.00,,,0.00,meteohub,2013-04-16 09:57:00,
2013-04-16 06:02:00,69.4,67.6,30.02,NW,309,1.0,1.0,94,0.00,,,0.00,meteohub,2013-04-16 10:02:00,
2013-04-16 06:07:00,69.4,68.0,30.02,NW,309,2.0,2.0,95,0.00,,,0.00,meteohub,2013-04-16 10:07:00,
2013-04-16 06:12:00,69.6,67.8,30.01,NW,309,0.0,2.0,94,0.00,,,0.00,meteohub,2013-04-16 10:12:00,
2013-04-16 06:17:00,69.6,67.8,30.02,NW,309,1.0,2.0,94,0.00,,,0.00,meteohub,2013-04-16 10:17:00,
2013-04-16 06:22:00,69.6,67.8,30.02,NW,309,0.0,2.0,94,0.00,,,0.00,meteohub,2013-04-16 10:22:00,
2013-04-16 06:27:00,69.6,67.8,30.02,NW,309,0.0,2.0,94,0.00,,,0.00,meteohub,2013-04-16 10:27:00,
2013-04-16 06:32:00,69.8,68.0,30.02,NW,309,1.0,3.0,94,0.00,,,0.00,meteohub,2013-04-16 10:32:00,
2013-04-16 06:37:00,70.0,68.2,30.03,NW,309,0.0,3.0,94,0.00,,,0.00,meteohub,2013-04-16 10:37:00,
2013-04-16 06:43:00,70.0,68.2,30.03,NW,309,0.0,3.0,94,0.00,,,0.00,meteohub,2013-04-16 10:43:00,
2013-04-16 06:48:00,70.0,68.2,30.03,NW,309,1.0,3.0,94,0.00,,,0.00,meteohub,2013-04-16 10:48:00,
2013-04-16 06:53:00,70.0,68.2,30.04,NW,309,2.0,3.0,94,0.00,,,0.00,meteohub,2013-04-16 10:53:00,
2013-04-16 06:58:00,70.0,67.8,30.04,NW,309,1.0,2.0,93,0.00,,,0.00,meteohub,2013-04-16 10:58:00,
2013-04-16 07:03:00,70.0,67.8,30.04,NW,309,1.0,2.0,93,0.00,,,0.00,meteohub,2013-04-16 11:03:00,
2013-04-16 07:08:00,70.0,67.8,30.04,NW,309,2.0,2.0,93,0.00,,,0.00,meteohub,2013-04-16 11:08:00,
2013-04-16 07:13:00,70.2,68.0,30.05,NW,309,1.0,3.0,93,0.00,,,0.00,meteohub,2013-04-16 11:13:00,
2013-04-16 07:18:00,70.2,67.6,30.05,NW,309,1.0,3.0,92,0.00,,,0.00,meteohub,2013-04-16 11:18:00,
2013-04-16 07:24:00,70.2,67.6,30.05,NW,309,1.0,3.0,92,0.00,,,0.00,meteohub,2013-04-16 11:24:00,
2013-04-16 07:29:00,70.3,67.8,30.06,NW,309,1.0,3.0,92,0.00,,,0.00,meteohub,2013-04-16 11:29:00,
2013-04-16 07:34:00,70.3,67.6,30.06,NW,309,1.0,3.0,91,0.00,,,0.00,meteohub,2013-04-16 11:34:00,
2013-04-16 07:39:00,70.5,67.8,30.06,NW,309,1.0,3.0,91,0.00,,,0.00,meteohub,2013-04-16 11:39:00,
2013-04-16 07:44:00,70.5,67.5,30.06,NW,309,2.0,3.0,90,0.00,,,0.00,meteohub,2013-04-16 11:44:00,
2013-04-16 07:49:00,70.7,67.6,30.06,NW,309,3.0,4.0,90,0.00,,,0.00,meteohub,2013-04-16 11:49:00,
2013-04-16 07:55:00,70.9,67.8,30.06,NW,309,2.0,4.0,90,0.00,,,0.00,meteohub,2013-04-16 11:55:00,
2013-04-16 08:00:00,71.1,67.6,30.06,NW,309,2.0,4.0,89,0.00,,,0.00,meteohub,2013-04-16 12:00:00,
2013-04-16 08:05:00,71.2,67.8,30.06,NW,309,2.0,4.0,89,0.00,,,0.00,meteohub,2013-04-16 12:05:00,
2013-04-16 08:10:00,71.4,68.0,30.06,NW,309,2.0,4.0,89,0.00,,,0.00,meteohub,2013-04-16 12:10:00,
2013-04-16 08:15:00,72.0,68.2,30.06,NW,309,2.0,4.0,88,0.00,,,0.00,meteohub,2013-04-16 12:15:00,
2013-04-16 08:20:00,72.5,68.7,30.07,NW,309,3.0,4.0,88,0.00,,,0.00,meteohub,2013-04-16 12:20:00,
2013-04-16 08:25:00,73.2,69.1,30.07,NW,309,2.0,4.0,87,0.00,,,0.00,meteohub,2013-04-16 12:25:00,
2013-04-16 08:30:00,74.3,69.4,30.07,NW,309,2.0,4.0,85,0.00,,,0.00,meteohub,2013-04-16 12:30:00,
2013-04-16 08:36:00,75.4,69.8,30.07,NW,309,2.0,4.0,83,0.00,,,0.00,meteohub,2013-04-16 12:36:00,
2013-04-16 08:41:00,76.3,70.0,30.07,NW,309,3.0,4.0,81,0.00,,,0.00,meteohub,2013-04-16 12:41:00,
2013-04-16 08:46:00,76.5,69.8,30.07,NW,309,3.0,5.0,80,0.00,,,0.00,meteohub,2013-04-16 12:46:00,
2013-04-16 08:51:00,76.6,69.6,30.07,East,97,5.0,5.0,79,0.00,,,0.00,meteohub,2013-04-16 12:51:00,
2013-04-16 08:56:00,76.8,69.8,30.07,ESE,103,2.0,7.0,79,0.00,,,0.00,meteohub,2013-04-16 12:56:00,
2013-04-16 09:02:00,77.5,70.2,30.07,ESE,102,5.0,7.0,78,0.00,,,0.00,meteohub,2013-04-16 13:02:00,
2013-04-16 09:07:00,77.9,70.5,30.07,East,94,5.0,6.0,78,0.00,,,0.00,meteohub,2013-04-16 13:07:00,
2013-04-16 09:12:00,78.6,70.9,30.07,East,94,2.0,5.0,77,0.00,,,0.00,meteohub,2013-04-16 13:12:00,
2013-04-16 09:17:00,79.3,70.7,30.07,East,101,2.0,6.0,75,0.00,,,0.00,meteohub,2013-04-16 13:17:00,
2013-04-16 09:22:00,79.3,70.7,30.07,East,99,3.0,6.0,75,0.00,,,0.00,meteohub,2013-04-16 13:22:00,
2013-04-16 09:27:00,79.7,70.7,30.08,East,80,3.0,7.0,74,0.00,,,0.00,meteohub,2013-04-16 13:27:00,
2013-04-16 09:32:00,79.9,70.9,30.08,ESE,105,3.0,7.0,74,0.00,,,0.00,meteohub,2013-04-16 13:32:00,
2013-04-16 09:37:00,80.2,71.2,30.08,ENE,63,5.0,7.0,74,0.00,,,0.00,meteohub,2013-04-16 13:37:00,
2013-04-16 09:42:00,80.2,70.9,30.08,ESE,123,4.0,7.0,73,0.00,,,0.00,meteohub,2013-04-16 13:42:00,
2013-04-16 09:47:00,80.1,70.7,30.08,ENE,77,3.0,7.0,73,0.00,,,0.00,meteohub,2013-04-16 13:47:00,
2013-04-16 09:52:00,80.4,70.9,30.08,SE,128,2.0,8.0,73,0.00,,,0.00,meteohub,2013-04-16 13:52:00,
2013-04-16 09:57:00,80.8,70.5,30.08,East,94,2.0,8.0,71,0.00,,,0.00,meteohub,2013-04-16 13:57:00,
2013-04-16 10:02:00,81.5,70.7,30.08,ESE,118,4.0,8.0,70,0.00,,,0.00,meteohub,2013-04-16 14:02:00,
2013-04-16 10:07:00,81.9,70.7,30.08,East,95,5.0,7.0,69,0.00,,,0.00,meteohub,2013-04-16 14:07:00,
2013-04-16 10:12:00,82.0,70.9,30.08,ESE,107,3.0,8.0,69,0.00,,,0.00,meteohub,2013-04-16 14:12:00,
2013-04-16 10:17:00,82.4,71.2,30.08,ESE,107,5.0,8.0,69,0.00,,,0.00,meteohub,2013-04-16 14:17:00,
2013-04-16 10:22:00,82.6,70.9,30.08,East,82,3.0,8.0,68,0.00,,,0.00,meteohub,2013-04-16 14:22:00,
2013-04-16 10:27:00,82.8,71.1,30.08,ESE,114,3.0,7.0,68,0.00,,,0.00,meteohub,2013-04-16 14:27:00,
2013-04-16 10:33:00,83.5,71.4,30.08,ESE,113,5.0,7.0,67,0.00,,,0.00,meteohub,2013-04-16 14:33:00,
2013-04-16 10:38:00,83.8,71.2,30.09,ESE,111,4.0,7.0,66,0.00,,,0.00,meteohub,2013-04-16 14:38:00,
2013-04-16 10:43:00,84.4,71.8,30.09,ESE,110,2.0,7.0,66,0.00,,,0.00,meteohub,2013-04-16 14:43:00,
2013-04-16 10:48:00,84.9,71.8,30.08,ESE,108,2.0,7.0,65,0.00,,,0.00,meteohub,2013-04-16 14:48:00,
2013-04-16 10:53:00,85.5,72.0,30.08,ESE,123,2.0,5.0,64,0.00,,,0.00,meteohub,2013-04-16 14:53:00,
2013-04-16 10:58:00,85.6,72.1,30.09,East,96,2.0,5.0,64,0.00,,,0.00,meteohub,2013-04-16 14:58:00,
2013-04-16 11:03:00,85.3,71.8,30.09,East,98,6.0,7.0,64,0.00,,,0.00,meteohub,2013-04-16 15:03:00,
2013-04-16 11:08:00,84.9,71.8,30.09,East,94,5.0,7.0,65,0.00,,,0.00,meteohub,2013-04-16 15:08:00,
2013-04-16 11:13:00,85.1,72.0,30.09,ESE,117,4.0,7.0,65,0.00,,,0.00,meteohub,2013-04-16 15:13:00,
2013-04-16 11:19:00,85.6,72.1,30.09,ESE,120,4.0,7.0,64,0.00,,,0.00,meteohub,2013-04-16 15:19:00,
2013-04-16 11:24:00,85.8,72.1,30.09,ESE,113,2.0,7.0,64,0.00,,,0.00,meteohub,2013-04-16 15:24:00,
2013-04-16 11:29:00,86.4,71.8,30.09,ESE,120,4.0,7.0,62,0.00,,,0.00,meteohub,2013-04-16 15:29:00,
2013-04-16 11:34:00,85.8,71.8,30.09,East,86,5.0,9.0,63,0.00,,,0.00,meteohub,2013-04-16 15:34:00,
2013-04-16 11:39:00,85.8,71.8,30.09,East,98,3.0,9.0,63,0.00,,,0.00,meteohub,2013-04-16 15:39:00,
2013-04-16 11:44:00,86.4,72.3,30.09,ESE,103,5.0,9.0,63,0.00,,,0.00,meteohub,2013-04-16 15:44:00,
2013-04-16 11:49:00,86.7,72.1,30.09,ESE,111,4.0,8.0,62,0.00,,,0.00,meteohub,2013-04-16 15:49:00,
2013-04-16 11:54:00,87.3,72.7,30.09,East,95,3.0,7.0,62,0.00,,,0.00,meteohub,2013-04-16 15:54:00,
2013-04-16 11:59:00,88.2,73.0,30.09,East,95,3.0,7.0,61,0.00,,,0.00,meteohub,2013-04-16 15:59:00,
2013-04-16 12:04:00,88.7,73.0,30.09,East,96,5.0,7.0,60,0.00,,,0.00,meteohub,2013-04-16 16:04:00,
2013-04-16 12:10:00,88.9,72.7,30.09,ENE,74,2.0,7.0,59,0.00,,,0.00,meteohub,2013-04-16 16:10:00,
2013-04-16 12:15:00,89.1,73.4,30.09,ENE,76,3.0,6.0,60,0.00,,,0.00,meteohub,2013-04-16 16:15:00,
2013-04-16 12:20:00,88.9,72.7,30.08,NE,53,2.0,6.0,59,0.00,,,0.00,meteohub,2013-04-16 16:20:00,
2013-04-16 12:25:00,88.5,72.9,30.08,East,92,2.0,7.0,60,0.00,,,0.00,meteohub,2013-04-16 16:25:00,
2013-04-16 12:30:00,89.2,72.5,30.08,ESE,113,4.0,7.0,58,0.00,,,0.00,meteohub,2013-04-16 16:30:00,
2013-04-16 12:35:00,89.1,72.9,30.08,ESE,104,2.0,7.0,59,0.00,,,0.00,meteohub,2013-04-16 16:35:00,
2013-04-16 12:40:00,89.2,73.0,30.07,SE,142,3.0,7.0,59,0.00,,,0.00,meteohub,2013-04-16 16:40:00,
2013-04-16 12:45:00,89.4,72.7,30.07,ESE,118,3.0,6.0,58,0.00,,,0.00,meteohub,2013-04-16 16:45:00,
2013-04-16 12:51:00,88.7,72.5,30.07,ESE,121,4.0,7.0,59,0.00,,,0.00,meteohub,2013-04-16 16:51:00,
2013-04-16 12:56:00,88.3,72.1,30.06,ESE,113,4.0,7.0,59,0.00,,,0.00,meteohub,2013-04-16 16:56:00,
2013-04-16 13:01:00,88.5,72.9,30.06,East,94,3.0,7.0,60,0.00,,,0.00,meteohub,2013-04-16 17:01:00,
2013-04-16 13:06:00,88.9,72.7,30.06,SSE,148,4.0,7.0,59,0.00,,,0.00,meteohub,2013-04-16 17:06:00,
2013-04-16 13:11:00,89.2,72.5,30.06,East,87,6.0,7.0,58,0.00,,,0.00,meteohub,2013-04-16 17:11:00,
2013-04-16 13:17:00,89.2,72.5,30.06,ESE,105,3.0,7.0,58,0.00,,,0.00,meteohub,2013-04-16 17:17:00,
2013-04-16 13:22:00,89.4,72.7,30.06,SE,130,4.0,8.0,58,0.00,,,0.00,meteohub,2013-04-16 17:22:00,
2013-04-16 13:27:00,90.0,72.7,30.06,SE,135,2.0,8.0,57,0.00,,,0.00,meteohub,2013-04-16 17:27:00,
2013-04-16 13:32:00,90.3,72.5,30.06,ESE,113,3.0,8.0,56,0.00,,,0.00,meteohub,2013-04-16 17:32:00,
2013-04-16 13:37:00,90.3,72.5,30.06,SE,140,3.0,8.0,56,0.00,,,0.00,meteohub,2013-04-16 17:37:00,
2013-04-16 13:42:00,90.3,72.5,30.06,SE,126,4.0,8.0,56,0.00,,,0.00,meteohub,2013-04-16 17:42:00,
2013-04-16 13:47:00,90.7,72.9,30.05,SE,124,1.0,8.0,56,0.00,,,0.00,meteohub,2013-04-16 17:47:00,
2013-04-16 13:52:00,90.7,72.3,30.05,SE,127,3.0,6.0,55,0.00,,,0.00,meteohub,2013-04-16 17:52:00,
2013-04-16 13:57:00,90.5,72.1,30.05,SE,125,1.0,6.0,55,0.00,,,0.00,meteohub,2013-04-16 17:57:00,
2013-04-16 14:03:00,90.9,72.0,30.05,SE,141,6.0,7.0,54,0.00,,,0.00,meteohub,2013-04-16 18:03:00,
2013-04-16 14:08:00,90.9,72.0,30.05,SE,145,2.0,7.0,54,0.00,,,0.00,meteohub,2013-04-16 18:08:00,
2013-04-16 14:13:00,91.6,72.5,30.05,ESE,113,2.0,7.0,54,0.00,,,0.00,meteohub,2013-04-16 18:13:00,
2013-04-16 14:18:00,91.9,72.3,30.05,SE,132,3.0,8.0,53,0.00,,,0.00,meteohub,2013-04-16 18:18:00,
2013-04-16 14:23:00,91.8,72.1,30.05,SE,129,2.0,8.0,53,0.00,,,0.00,meteohub,2013-04-16 18:23:00,
2013-04-16 14:28:00,91.6,72.0,30.04,ESE,111,5.0,8.0,53,0.00,,,0.00,meteohub,2013-04-16 18:28:00,
2013-04-16 14:33:00,91.8,72.1,30.04,ESE,116,5.0,8.0,53,0.00,,,0.00,meteohub,2013-04-16 18:33:00,
2013-04-16 14:39:00,91.8,71.6,30.04,East,99,3.0,8.0,52,0.00,,,0.00,meteohub,2013-04-16 18:39:00,
2013-04-16 14:44:00,91.8,72.1,30.04,SE,128,0.0,7.0,53,0.00,,,0.00,meteohub,2013-04-16 18:44:00,
2013-04-16 14:49:00,92.1,72.0,30.04,ESE,107,3.0,7.0,52,0.00,,,0.00,meteohub,2013-04-16 18:49:00,
2013-04-16 14:54:00,92.1,71.4,30.04,SE,132,5.0,9.0,51,0.00,,,0.00,meteohub,2013-04-16 18:54:00,
2013-04-16 14:59:00,92.8,71.4,30.04,East,101,2.0,9.0,50,0.00,,,0.00,meteohub,2013-04-16 18:59:00,
2013-04-16 15:04:00,93.0,71.6,30.04,SE,138,3.0,9.0,50,0.00,,,0.00,meteohub,2013-04-16 19:04:00,
2013-04-16 15:09:00,92.8,70.9,30.03,SSE,167,2.0,7.0,49,0.00,,,0.00,meteohub,2013-04-16 19:09:00,
2013-04-16 15:14:00,92.7,70.7,30.03,ESE,109,3.0,7.0,49,0.00,,,0.00,meteohub,2013-04-16 19:14:00,
2013-04-16 15:19:00,92.7,71.2,30.03,ENE,74,4.0,7.0,50,0.00,,,0.00,meteohub,2013-04-16 19:19:00,
2013-04-16 15:24:00,92.7,70.2,30.03,East,96,5.0,6.0,48,0.00,,,0.00,meteohub,2013-04-16 19:24:00,
2013-04-16 15:30:00,92.7,70.7,30.03,East,96,3.0,8.0,49,0.00,,,0.00,meteohub,2013-04-16 19:30:00,
2013-04-16 15:35:00,93.2,70.5,30.03,NE,49,5.0,8.0,48,0.00,,,0.00,meteohub,2013-04-16 19:35:00,
2013-04-16 15:40:00,92.8,70.3,30.03,East,96,3.0,8.0,48,0.00,,,0.00,meteohub,2013-04-16 19:40:00,
2013-04-16 15:45:00,91.9,69.4,30.02,ESE,118,3.0,7.0,48,0.00,,,0.00,meteohub,2013-04-16 19:45:00,
2013-04-16 15:50:00,91.4,68.9,30.02,ESE,118,2.0,7.0,48,0.00,,,0.00,meteohub,2013-04-16 19:50:00,
2013-04-16 15:55:00,91.8,69.3,30.02,ENE,70,5.0,7.0,48,0.00,,,0.00,meteohub,2013-04-16 19:55:00,
2013-04-16 16:00:00,91.9,68.9,30.02,East,99,5.0,7.0,47,0.00,,,0.00,meteohub,2013-04-16 20:00:00,
2013-04-16 16:05:00,92.3,69.1,30.02,East,99,3.0,7.0,47,0.00,,,0.00,meteohub,2013-04-16 20:05:00,
2013-04-16 16:10:00,92.7,69.4,30.02,ESE,112,2.0,7.0,47,0.00,,,0.00,meteohub,2013-04-16 20:10:00,
2013-04-16 16:15:00,92.1,68.9,30.02,NE,54,1.0,5.0,47,0.00,,,0.00,meteohub,2013-04-16 20:15:00,
2013-04-16 16:20:00,92.1,72.5,30.02,NNW,346,2.0,8.0,53,0.00,,,0.00,meteohub,2013-04-16 20:20:00,
2013-04-16 16:25:00,92.3,72.7,30.02,NW,315,3.0,8.0,53,0.00,,,0.00,meteohub,2013-04-16 20:25:00,
2013-04-16 16:30:00,91.4,72.3,30.02,NW,306,4.0,8.0,54,0.00,,,0.00,meteohub,2013-04-16 20:30:00,
2013-04-16 16:36:00,91.0,72.1,30.02,NNW,333,5.0,8.0,54,0.00,,,0.00,meteohub,2013-04-16 20:36:00,
2013-04-16 16:41:00,91.2,71.6,30.02,WNW,292,3.0,9.0,53,0.00,,,0.00,meteohub,2013-04-16 20:41:00,
2013-04-16 16:46:00,91.0,71.6,30.02,NW,318,6.0,9.0,53,0.00,,,0.00,meteohub,2013-04-16 20:46:00,
2013-04-16 16:51:00,91.4,71.2,30.02,NW,321,3.0,9.0,52,0.00,,,0.00,meteohub,2013-04-16 20:51:00,
2013-04-16 16:56:00,91.4,71.2,30.02,NW,304,5.0,8.0,52,0.00,,,0.00,meteohub,2013-04-16 20:56:00,
2013-04-16 17:01:00,91.9,71.8,30.02,WNW,294,3.0,8.0,52,0.00,,,0.00,meteohub,2013-04-16 21:01:00,
2013-04-16 17:06:00,92.1,71.4,30.02,WNW,293,2.0,8.0,51,0.00,,,0.00,meteohub,2013-04-16 21:06:00,
2013-04-16 17:11:00,92.7,72.0,30.02,WNW,292,6.0,7.0,51,0.00,,,0.00,meteohub,2013-04-16 21:11:00,
2013-04-16 17:16:00,92.7,72.0,30.01,WNW,287,6.0,7.0,51,0.00,,,0.00,meteohub,2013-04-16 21:16:00,
2013-04-16 17:22:00,92.1,72.5,30.02,WNW,294,6.0,9.0,53,0.00,,,0.00,meteohub,2013-04-16 21:22:00,
2013-04-16 17:27:00,91.6,71.4,30.02,NW,319,3.0,9.0,52,0.00,,,0.00,meteohub,2013-04-16 21:27:00,
2013-04-16 17:32:00,90.0,71.1,30.02,NW,319,5.0,8.0,54,0.00,,,0.00,meteohub,2013-04-16 21:32:00,
2013-04-16 17:37:00,88.7,71.1,30.01,NW,314,6.0,7.0,56,0.00,,,0.00,meteohub,2013-04-16 21:37:00,
2013-04-16 17:42:00,87.6,71.6,30.02,NW,313,3.0,7.0,59,0.00,,,0.00,meteohub,2013-04-16 21:42:00,
2013-04-16 17:47:00,87.3,71.6,30.02,NW,313,2.0,7.0,60,0.00,,,0.00,meteohub,2013-04-16 21:47:00,
2013-04-16 17:52:00,87.3,72.1,30.02,NW,313,3.0,7.0,61,0.00,,,0.00,meteohub,2013-04-16 21:52:00,
2013-04-16 17:57:00,87.8,72.1,30.02,NNW,338,1.0,5.0,60,0.00,,,0.00,meteohub,2013-04-16 21:57:00,
2013-04-16 18:02:00,88.9,72.7,30.02,NW,317,2.0,8.0,59,0.00,,,0.00,meteohub,2013-04-16 22:02:00,
2013-04-16 18:07:00,89.6,72.3,30.02,NW,305,3.0,8.0,57,0.00,,,0.00,meteohub,2013-04-16 22:07:00,
2013-04-16 18:12:00,89.8,72.5,30.02,NW,306,2.0,8.0,57,0.00,,,0.00,meteohub,2013-04-16 22:12:00,
2013-04-16 18:17:00,89.6,71.8,30.02,NW,306,0.0,6.0,56,0.00,,,0.00,meteohub,2013-04-16 22:17:00,
2013-04-16 18:22:00,90.0,72.7,30.02,NW,306,3.0,6.0,57,0.00,,,0.00,meteohub,2013-04-16 22:22:00,
2013-04-16 18:27:00,90.0,73.2,30.02,NW,305,4.0,6.0,58,0.00,,,0.00,meteohub,2013-04-16 22:27:00,
2013-04-16 18:32:00,89.6,73.4,30.02,WNW,300,3.0,6.0,59,0.00,,,0.00,meteohub,2013-04-16 22:32:00,
2013-04-16 18:37:00,88.9,74.1,30.02,WNW,296,2.0,6.0,62,0.00,,,0.00,meteohub,2013-04-16 22:37:00,
2013-04-16 18:42:00,87.8,73.6,30.02,WNW,290,5.0,7.0,63,0.00,,,0.00,meteohub,2013-04-16 22:42:00,
2013-04-16 18:47:00,87.1,73.4,30.02,NW,304,5.0,7.0,64,0.00,,,0.00,meteohub,2013-04-16 22:47:00,
2013-04-16 18:52:00,86.7,73.6,30.02,WNW,303,1.0,7.0,65,0.00,,,0.00,meteohub,2013-04-16 22:52:00,
2013-04-16 18:57:00,86.7,73.6,30.03,WNW,303,3.0,7.0,65,0.00,,,0.00,meteohub,2013-04-16 22:57:00,
2013-04-16 19:02:00,86.7,73.9,30.03,WNW,303,4.0,7.0,66,0.00,,,0.00,meteohub,2013-04-16 23:02:00,
2013-04-16 19:07:00,86.4,73.6,30.03,WNW,303,3.0,7.0,66,0.00,,,0.00,meteohub,2013-04-16 23:07:00,
2013-04-16 19:12:00,86.2,73.9,30.03,WNW,303,3.0,6.0,67,0.00,,,0.00,meteohub,2013-04-16 23:12:00,
2013-04-16 19:17:00,85.3,73.9,30.03,WNW,302,3.0,6.0,69,0.00,,,0.00,meteohub,2013-04-16 23:17:00,
2013-04-16 19:22:00,84.7,73.9,30.03,WNW,302,3.0,7.0,70,0.00,,,0.00,meteohub,2013-04-16 23:22:00,
2013-04-16 19:27:00,84.2,73.8,30.03,NW,304,2.0,7.0,71,0.00,,,0.00,meteohub,2013-04-16 23:27:00,
2013-04-16 19:32:00,83.8,73.8,30.03,NW,304,4.0,7.0,72,0.00,,,0.00,meteohub,2013-04-16 23:32:00,
2013-04-16 19:37:00,83.5,73.6,30.03,NW,304,2.0,7.0,72,0.00,,,0.00,meteohub,2013-04-16 23:37:00,
2013-04-16 19:42:00,83.3,73.4,30.03,NW,305,1.0,6.0,72,0.00,,,0.00,meteohub,2013-04-16 23:42:00,
2013-04-16 19:47:00,83.1,73.2,30.03,NW,305,2.0,6.0,72,0.00,,,0.00,meteohub,2013-04-16 23:47:00,
2013-04-16 19:52:00,82.9,73.0,30.03,NW,305,2.0,6.0,72,0.00,,,0.00,meteohub,2013-04-16 23:52:00,
2013-04-16 19:57:00,82.6,72.7,30.03,NW,305,0.0,6.0,72,0.00,,,0.00,meteohub,2013-04-16 23:57:00,
2013-04-16 20:02:00,82.4,72.5,30.03,NW,305,1.0,6.0,72,0.00,,,0.00,meteohub,2013-04-17 00:02:00,
2013-04-16 20:07:00,82.2,72.7,30.04,NW,305,0.0,4.0,73,0.00,,,0.00,meteohub,2013-04-17 00:07:00,
2013-04-16 20:12:00,82.0,72.5,30.04,NW,305,0.0,4.0,73,0.00,,,0.00,meteohub,2013-04-17 00:12:00,
2013-04-16 20:17:00,82.0,72.5,30.04,NW,305,0.0,3.0,73,0.00,,,0.00,meteohub,2013-04-17 00:17:00,
2013-04-16 20:22:00,81.9,72.3,30.04,NW,305,0.0,2.0,73,0.00,,,0.00,meteohub,2013-04-17 00:22:00,
2013-04-16 20:27:00,82.0,69.6,30.04,NW,305,0.0,5.0,66,0.00,,,0.00,meteohub,2013-04-17 00:27:00,
2013-04-16 20:32:00,82.9,70.0,30.04,NW,305,0.0,5.0,65,0.00,,,0.00,meteohub,2013-04-17 00:32:00,
2013-04-16 20:37:00,83.5,70.0,30.04,NNE,22,2.0,6.0,64,0.00,,,0.00,meteohub,2013-04-17 00:37:00,
2013-04-16 20:42:00,83.8,70.0,30.05,ENE,75,1.0,6.0,63,0.00,,,0.00,meteohub,2013-04-17 00:42:00,
2013-04-16 20:47:00,84.0,69.6,30.05,ENE,74,4.0,6.0,62,0.00,,,0.00,meteohub,2013-04-17 00:47:00,
2013-04-16 20:52:00,84.0,69.6,30.05,ENE,68,5.0,8.0,62,0.00,,,0.00,meteohub,2013-04-17 00:52:00,
2013-04-16 20:57:00,83.7,69.3,30.06,East,82,3.0,11.0,62,0.00,,,0.00,meteohub,2013-04-17 00:57:00,
2013-04-16 21:02:00,83.5,69.6,30.06,East,90,5.0,11.0,63,0.00,,,0.00,meteohub,2013-04-17 01:02:00,
2013-04-16 21:07:00,83.1,69.6,30.06,NE,56,6.0,11.0,64,0.00,,,0.00,meteohub,2013-04-17 01:07:00,
2013-04-16 21:12:00,82.8,69.8,30.06,East,79,3.0,10.0,65,0.00,,,0.00,meteohub,2013-04-17 01:12:00,
2013-04-16 21:17:00,82.6,69.6,30.06,ENE,66,7.0,10.0,65,0.00,,,0.00,meteohub,2013-04-17 01:17:00,
2013-04-16 21:22:00,82.2,69.8,30.07,East,83,7.0,10.0,66,0.00,,,0.00,meteohub,2013-04-17 01:22:00,
2013-04-16 21:27:00,82.0,69.6,30.07,ENE,62,5.0,10.0,66,0.00,,,0.00,meteohub,2013-04-17 01:27:00,
2013-04-16 21:32:00,81.9,69.4,30.07,East,97,5.0,11.0,66,0.00,,,0.00,meteohub,2013-04-17 01:32:00,
2013-04-16 21:37:00,81.9,69.8,30.07,East,94,6.0,11.0,67,0.00,,,0.00,meteohub,2013-04-17 01:37:00,
2013-04-16 21:42:00,81.7,69.6,30.08,East,82,6.0,11.0,67,0.00,,,0.00,meteohub,2013-04-17 01:42:00,
2013-04-16 21:47:00,81.3,69.3,30.08,East,97,6.0,9.0,67,0.00,,,0.00,meteohub,2013-04-17 01:47:00,
2013-04-16 21:52:00,81.1,69.6,30.08,ESE,112,4.0,9.0,68,0.00,,,0.00,meteohub,2013-04-17 01:52:00,
2013-04-16 21:57:00,81.0,69.4,30.08,East,90,6.0,11.0,68,0.00,,,0.00,meteohub,2013-04-17 01:57:00,
2013-04-16 22:02:00,80.6,68.5,30.08,NW,311,6.0,13.0,67,0.00,,,0.00,meteohub,2013-04-17 02:02:00,
2013-04-16 22:07:00,80.2,68.7,30.09,East,88,6.0,13.0,68,0.00,,,0.00,meteohub,2013-04-17 02:07:00,
2013-04-16 22:12:00,80.1,68.5,30.09,ENE,69,8.0,11.0,68,0.00,,,0.00,meteohub,2013-04-17 02:12:00,
2013-04-16 22:17:00,79.9,68.7,30.09,East,89,5.0,11.0,69,0.00,,,0.00,meteohub,2013-04-17 02:17:00,
2013-04-16 22:22:00,79.7,68.5,30.09,East,99,5.0,11.0,69,0.00,,,0.00,meteohub,2013-04-17 02:22:00,
2013-04-16 22:27:00,79.5,68.5,30.09,ENE,76,8.0,10.0,69,0.00,,,0.00,meteohub,2013-04-17 02:27:00,
2013-04-16 22:32:00,79.3,68.4,30.09,NE,53,4.0,10.0,69,0.00,,,0.00,meteohub,2013-04-17 02:32:00,
2013-04-16 22:37:00,79.2,68.2,30.09,East,79,6.0,10.0,69,0.00,,,0.00,meteohub,2013-04-17 02:37:00,
2013-04-16 22:42:00,79.0,68.0,30.09,ENE,71,3.0,10.0,69,0.00,,,0.00,meteohub,2013-04-17 02:42:00,
2013-04-16 22:47:00,78.8,68.2,30.09,East,85,2.0,10.0,70,0.00,,,0.00,meteohub,2013-04-17 02:47:00,
2013-04-16 22:52:00,78.6,68.4,30.09,East,89,5.0,10.0,71,0.00,,,0.00,meteohub,2013-04-17 02:52:00,
2013-04-16 22:57:00,78.4,68.2,30.09,East,90,5.0,8.0,71,0.00,,,0.00,meteohub,2013-04-17 02:57:00,
2013-04-16 23:02:00,78.3,68.0,30.09,ESE,109,3.0,8.0,71,0.00,,,0.00,meteohub,2013-04-17 03:02:00,
2013-04-16 23:07:00,78.3,68.5,30.09,ENE,74,4.0,8.0,72,0.00,,,0.00,meteohub,2013-04-17 03:07:00,
2013-04-16 23:12:00,78.1,68.4,30.09,East,99,3.0,8.0,72,0.00,,,0.00,meteohub,2013-04-17 03:12:00,
2013-04-16 23:17:00,77.9,68.5,30.09,East,81,5.0,8.0,73,0.00,,,0.00,meteohub,2013-04-17 03:17:00,
2013-04-16 23:22:00,77.7,68.4,30.09,ESE,105,2.0,7.0,73,0.00,,,0.00,meteohub,2013-04-17 03:22:00,
2013-04-16 23:27:00,77.5,68.2,30.09,ENE,70,3.0,7.0,73,0.00,,,0.00,meteohub,2013-04-17 03:27:00,
2013-04-16 23:32:00,77.5,68.2,30.09,East,86,6.0,7.0,73,0.00,,,0.00,meteohub,2013-04-17 03:32:00,
2013-04-16 23:37:00,77.4,68.0,30.09,East,91,7.0,8.0,73,0.00,,,0.00,meteohub,2013-04-17 03:37:00,
2013-04-16 23:42:00,77.2,67.8,30.09,East,96,6.0,9.0,73,0.00,,,0.00,meteohub,2013-04-17 03:42:00,
2013-04-16 23:47:00,76.8,67.5,30.09,ENE,66,5.0,9.0,73,0.00,,,0.00,meteohub,2013-04-17 03:47:00,
2013-04-16 23:52:00,76.8,67.8,30.09,ESE,107,3.0,9.0,74,0.00,,,0.00,meteohub,2013-04-17 03:52:00,
2013-04-16 23:57:00,76.6,67.6,30.09,East,96,2.0,9.0,74,0.00,,,0.00,meteohub,2013-04-17 03:57:00,